Date String (YYYY-MM-DD hh:mm:ss) UTC,Instrument flags,Ambient pressure (hPa),Sample flow (lpm),Bypass flow (lpm),Sample temperature (°C),Ambient temperature (°C),ASC tube jacket temperature (°C),LED temperature (°C),Box temperature (°C),Sample RH (%),Span deviation,Mass concentration (μg/m³),Mass concentration (μg/m³),Mass concentration (μg/m³)
DateTimeUTC,F1_M11,P_M11,Q1_M11,Q2_M11,T1_M11,T2_M11,T3_M11,T4_M11,T5_M11,U1_M11,ZSPAN_M11,X0_M11,X2_M11,X1_M11
2022-07-12 06:00:00,,0832.1,5.00,0.00,29.7,28.5,00.0,38.5,31.6,30.8,0000.5,0018.71,0011.28,0010.09
2022-07-12 06:01:00,,0832.1,5.00,0.00,29.7,28.5,00.0,38.5,31.6,30.8,0000.3,0018.77,0011.33,0010.10
2022-07-12 06:02:00,,0832.1,5.00,0.00,29.7,28.6,00.0,38.5,31.7,30.8,0000.6,0018.50,0011.32,0010.12
2022-07-12 06:03:00,,0832.1,5.00,0.00,29.8,28.7,00.0,38.5,31.7,30.8,0000.8,0019.71,0011.37,0010.17
2022-07-12 06:04:00,,0832.2,5.00,0.00,29.8,28.7,00.0,38.5,31.7,30.8,0000.7,0021.11,0011.44,0010.19
2022-07-12 06:05:00,,0832.1,5.00,0.00,29.8,28.8,00.0,38.6,31.8,30.7,0000.0,0021.48,0011.48,0010.23
2022-07-12 06:06:00,,0832.1,5.00,0.00,29.8,28.8,00.0,38.6,31.8,30.6,0000.0,0021.48,0011.48,0010.26
2022-07-12 06:07:00,,0832.1,5.01,0.00,29.9,28.8,00.0,38.6,31.8,30.6,0001.4,0020.88,0011.44,0010.29
2022-07-12 06:08:00,,0832.1,5.00,0.00,29.9,28.9,00.0,38.6,31.9,30.6,0002.1,0020.69,0011.42,0010.32
2022-07-12 06:09:00,,0832.1,5.00,0.00,29.9,28.5,00.0,38.6,31.8,30.5,0001.5,0020.97,0011.43,0010.34
2022-07-12 06:10:00,,0832.1,5.00,0.00,29.9,27.8,00.0,38.5,31.7,30.4,0000.9,0021.08,0011.43,0010.37
2022-07-12 06:11:00,,0832.1,5.00,0.00,29.8,27.5,00.0,38.5,31.6,30.4,0000.2,0021.24,0011.46,0010.37
2022-07-12 06:12:00,,0832.1,5.00,0.00,29.7,27.5,00.0,38.5,31.4,30.6,0000.2,0021.54,0011.47,0010.36
2022-07-12 06:13:00,,0832.1,5.01,0.00,29.7,27.5,00.0,38.5,31.4,30.8,0002.1,0022.03,0011.49,0010.37
2022-07-12 06:14:00,,0832.0,5.00,0.00,29.6,27.6,00.0,38.5,31.4,30.8,0002.7,0021.48,0011.50,0010.36
2022-07-12 06:15:00,,0832.0,4.99,0.00,29.6,27.8,00.0,38.5,31.4,30.8,0002.6,0020.52,0011.47,0010.34
2022-07-12 06:16:00,,0832.1,5.01,0.00,29.6,27.9,00.0,38.5,31.4,30.8,0002.5,0021.25,0011.44,0010.32
2022-07-12 06:17:00,,0832.1,4.99,0.00,29.6,28.0,00.0,38.5,31.5,30.8,0001.6,0020.80,0011.47,0010.31
2022-07-12 06:18:00,,0832.1,5.01,0.00,29.6,28.1,00.0,38.5,31.5,30.8,0000.9,0021.30,0011.51,0010.31
2022-07-12 06:19:00,,0832.1,5.00,0.00,29.7,28.2,00.0,38.5,31.5,30.8,0000.0,0021.44,0011.56,0010.29
2022-07-12 06:20:00,,0832.0,5.00,0.00,29.7,28.3,00.0,38.5,31.6,30.8,0000.0,0021.46,0011.56,0010.28
2022-07-12 06:21:00,,0832.0,5.00,0.00,29.7,28.4,00.0,38.5,31.6,30.8,0000.0,0021.97,0011.50,0010.26
2022-07-12 06:22:00,,0831.9,5.00,0.00,29.7,28.5,00.0,38.5,31.6,30.8,0000.1,0022.26,0011.54,0010.28
2022-07-12 06:23:00,,0832.0,5.00,0.00,29.7,28.6,00.0,38.5,31.6,30.7,0000.3,0022.24,0011.60,0010.32
2022-07-12 06:24:00,,0832.0,5.00,0.00,29.8,28.6,00.0,38.5,31.7,30.7,-000.5,0021.37,0011.63,0010.34
2022-07-12 06:25:00,,0831.9,5.00,0.00,29.8,28.7,00.0,38.5,31.7,30.6,-001.1,0021.59,0011.64,0010.38
2022-07-12 06:26:00,,0831.9,5.00,0.00,29.8,28.7,00.0,38.6,31.8,30.6,-000.7,0022.11,0011.69,0010.42
2022-07-12 06:27:00,,0832.0,5.00,0.00,29.8,28.8,00.0,38.6,31.8,30.5,-000.1,0021.21,0011.73,0010.46
2022-07-12 06:28:00,,0832.0,5.00,0.00,29.9,28.8,00.0,38.6,31.8,30.5,0000.2,0021.19,0011.81,0010.49
2022-07-12 06:29:00,,0831.9,5.00,0.00,29.9,28.9,00.0,38.6,31.8,30.4,0000.3,0021.49,0011.85,0010.52
2022-07-12 06:30:00,,0831.8,5.00,0.00,29.9,28.9,00.0,38.6,31.9,30.4,0000.0,0021.88,0011.89,0010.55
2022-07-12 06:31:00,,0831.7,5.00,0.00,29.9,28.9,00.0,38.7,31.9,30.4,-000.0,0022.25,0011.97,0010.61
2022-07-12 06:32:00,,0831.7,4.99,0.00,30.0,28.6,00.0,38.6,31.9,30.3,-000.1,0022.46,0012.04,0010.65
2022-07-12 06:33:00,,0831.7,5.00,0.00,29.9,27.8,00.0,38.6,31.7,30.4,-000.0,0023.01,0012.08,0010.69
2022-07-12 06:34:00,,0831.8,4.99,0.00,29.9,27.5,00.0,38.6,31.6,30.4,0000.0,0022.81,0012.07,0010.72
2022-07-12 06:35:00,,0831.7,5.00,0.00,29.8,27.5,00.0,38.5,31.5,30.6,0000.0,0022.46,0012.03,0010.73
2022-07-12 06:36:00,,0831.7,5.00,0.00,29.7,27.6,00.0,38.5,31.4,30.7,0000.0,0022.89,0012.05,0010.73
2022-07-12 06:37:00,,0831.7,5.00,0.00,29.7,27.7,00.0,38.5,31.4,30.8,0000.0,0021.87,0012.03,0010.73
2022-07-12 06:38:00,,0831.7,5.00,0.00,29.7,27.8,00.0,38.5,31.4,30.8,0000.0,0021.55,0012.07,0010.75
2022-07-12 06:39:00,,0831.7,5.01,0.00,29.7,27.9,00.0,38.5,31.5,30.8,0000.0,0022.54,0012.02,0010.74
2022-07-12 06:40:00,,0831.7,5.00,0.00,29.7,28.1,00.0,38.5,31.5,30.8,0000.0,0022.00,0011.99,0010.76
2022-07-12 06:41:00,,0831.7,4.99,0.00,29.7,28.2,00.0,38.5,31.5,30.8,0000.0,0021.40,0011.97,0010.77
2022-07-12 06:42:00,,0831.7,5.00,0.00,29.7,28.3,00.0,38.5,31.6,30.8,0000.0,0021.20,0011.92,0010.76
2022-07-12 06:43:00,,0831.6,5.00,0.00,29.7,28.4,00.0,38.5,31.6,30.7,0000.0,0020.57,0011.93,0010.77
2022-07-12 06:44:00,,0831.6,5.00,0.00,29.7,28.4,00.0,38.5,31.6,30.7,0000.0,0019.52,0011.91,0010.75
2022-07-12 06:45:00,,0831.5,5.00,0.00,29.7,28.5,00.0,38.5,31.6,30.6,0000.0,0019.33,0011.91,0010.73
2022-07-12 06:46:00,,0831.5,5.00,0.00,29.8,28.6,00.0,38.5,31.7,30.6,0000.0,0020.45,0011.86,0010.72
2022-07-12 06:47:00,,0831.5,5.00,0.00,29.8,28.6,00.0,38.5,31.7,30.6,0000.0,0020.98,0011.86,0010.73
2022-07-12 06:48:00,,0831.5,5.01,0.00,29.8,28.7,00.0,38.6,31.7,30.5,0000.1,0021.13,0011.84,0010.74
2022-07-12 06:49:00,,0831.5,5.00,0.00,29.8,28.7,00.0,38.6,31.8,30.4,0001.0,0021.06,0011.82,0010.73
2022-07-12 06:50:00,,0831.6,5.00,0.00,29.9,28.8,00.0,38.6,31.8,30.4,0001.5,0019.93,0011.80,0010.72
2022-07-12 06:51:00,,0831.6,5.00,0.00,29.9,28.8,00.0,38.6,31.8,30.3,0000.8,0019.73,0011.77,0010.67
2022-07-12 06:52:00,,0831.5,5.00,0.00,29.9,28.8,00.0,38.6,31.8,30.3,0001.0,0019.96,0011.73,0010.64
2022-07-12 06:53:00,,0831.6,5.00,0.00,29.9,28.9,00.0,38.6,31.9,30.2,0001.3,0019.98,0011.64,0010.61
2022-07-12 06:54:00,,0831.6,5.00,0.00,29.9,28.9,00.0,38.7,31.9,30.2,0002.1,0020.09,0011.60,0010.57
2022-07-12 06:55:00,,0831.5,5.00,0.00,30.0,28.9,00.0,38.7,31.9,30.2,0002.3,0020.48,0011.58,0010.51
2022-07-12 06:56:00,,0831.5,5.01,0.00,30.0,28.5,00.0,38.6,31.9,30.2,0002.6,0020.34,0011.50,0010.45
2022-07-12 06:57:00,,0831.5,5.00,0.00,29.9,27.8,00.0,38.6,31.7,30.2,0002.9,0020.08,0011.51,0010.39
2022-07-12 06:58:00,,0831.4,5.00,0.00,29.9,27.4,00.0,38.6,31.6,30.3,0002.6,0019.04,0011.49,0010.32
2022-07-12 06:59:00,,0831.4,5.00,0.00,29.8,27.4,00.0,38.6,31.5,30.4,0001.5,0018.75,0011.45,0010.25
